Regional Weather Roundup
Issued by NWS

Home | Current Version | Previous Version | Text Only | Print | Product List | Glossary Off
Versions: 1 2 3 4 5 6 7 8 9 10 11 12 13 14 15 16 17 18 19 20 21 22 23 24 25 26 27 28 29 30 31 32 33 34 35 36 37 38 39 40 41 42 43 44 45 46 47 48 49 50

000
ASUS43 KFSD 261810
RWRSD

WEATHER ROUNDUP FOR SOUTH DAKOTA
NATIONAL WEATHER SERVICE SIOUX FALLS SD
100 PM CDT THU MAR 26 2015

NOTE: "FAIR" INDICATES FEW OR NO CLOUDS BELOW 12,000 FEET WITH NO
SIGNIFICANT WEATHER AND/OR OBSTRUCTIONS TO VISIBILITY.


SDZ001>005-009-010-012>017-261900-
NORTHWEST AND NORTH CENTRAL SOUTH DAKOTA

CITY           SKY/WX    TMP DP  RH WIND       PRES   REMARKS
BUFFALO          N/A     43  29  57 VRB6      30.07S
FAITH            N/A     34  29  82 CALM      30.15R
MOBRIDGE       CLOUDY    36  25  64 N7        30.18R
$$

SDZ012>016-024>037-041>051-057-063-072>074-261900-
SOUTHWEST AND SOUTH CENTRAL SOUTH DAKOTA

CITY           SKY/WX    TMP DP  RH WIND       PRES   REMARKS
RAPID CTY ARPT CLOUDY    52  30  43 N22G33    30.09R
PIERRE         LGT SNOW  30  29  96 E3        30.17R VSB 1
CUSTER         CLOUDY    42  23  46 NW21G31   30.08S
ELLSWORTH AFB  CLOUDY    49  30  48 N22       30.09R
PHILIP         CLOUDY    43  30  60 E16       30.13R
PINE RIDGE     CLOUDY    50  29  44 W18G25    30.09S
SPEARFISH      FAIR      45  27  49 NW18G28   30.13R
WINNER         SNOW      34  30  85 E12       30.11S VSB 1/2 WCI  25
$$

SDZ004>011-016>023-039-040-261900-
NORTHEAST SOUTH DAKOTA

CITY           SKY/WX    TMP DP  RH WIND       PRES   REMARKS
ABERDEEN       CLOUDY    35  21  56 NE14      30.23R WCI  26
WATERTOWN      CLOUDY    35  20  54 N13       30.16S WCI  26
SISSETON         N/A     32  20  61 N17       30.21F WCI  21
$$

SDZ017-020-022-023-036>040-048>070-261900-
SOUTHEAST SOUTH DAKOTA

CITY           SKY/WX    TMP DP  RH WIND       PRES   REMARKS
SIOUX FALLS    CLOUDY    38  23  55 N12       30.17S
HURON          CLOUDY    35  24  64 N6        30.19F
CHAMBERLAIN    LGT SNOW  32  29  87 SE5       30.17R WCI  27
MITCHELL       CLOUDY    38  25  59 VRB3      30.19F
YANKTON        CLOUDY    37  19  48 N7        30.20S
$$

ABBREVIATIONS USED IN REMARKS
   TC - TEMPERATURE IN CELSIUS
  WCI - WIND CHILL INDEX
   HX - HEAT INDEX
  VSB - VISIBILITY



USA.gov is the U.S. government's official web portal to all federal, state and local government web resources and services.